Location: Guadanolo
(41.9167°N, 12.9333°E)
Time: 05:22:56
(UTC+00:00)

Cosmos 1441 Rocket - Pass Details

Date: 16 September 2019
Orbit: 496 x 541 km, 81.1° (Epoch: 16 October)

Event Time Altitude Azimuth Distance (km) Brightness Sun altitude
Rises 18:30:40 0° 187° (S) 2,638 6.7 -14.3°
Reaches altitude 10° 18:32:49 10° 187° (S) 1,747 5.8 -14.7°
Maximum altitude 18:36:39 84° 101° (E) 523 3.1 -15.4°
Drops below altitude 10° 18:40:28 10° 11° (N) 1,735 6.0 -16.1°
Sets 18:42:35 0° 11° (N) 2,619 6.9 -16.4°
